This is the latest recevied weather packets stored in our database for station/object JS1SZZ-13. If no packets are shown the sender has not sent any weather packets the latest 10 day(s).
| Time | Temp. | Humidity | Pressure | Rain* | Wind** | Luminosity | Snow |
|---|---|---|---|---|---|---|---|
| 1777592101 | 8.89° C | 96% | 1007.1 hPa | 4.32 mm | - | - | - |
| 1777591200 | 8.89° C | 96% | 1007.5 hPa | 4.06 mm | - | - | - |
| 1777590300 | 8.89° C | 96% | 1007.9 hPa | 4.32 mm | - | - | - |
| 1777589400 | 8.33° C | 95% | 1008.3 hPa | 4.06 mm | - | - | - |
| 1777588501 | 8.33° C | 96% | 1008.6 hPa | 4.32 mm | - | - | - |
| 1777587600 | 8.33° C | 96% | 1008.7 hPa | 6.35 mm | - | - | - |
| 1777586701 | 8.33° C | 96% | 1009 hPa | 6.35 mm | - | - | - |
| 1777585800 | 8.33° C | 96% | 1009.6 hPa | 6.1 mm | - | - | - |
| 1777584899 | 8.33° C | 96% | 1009.9 hPa | 4.57 mm | - | - | - |
| 1777584001 | 8.33° C | 96% | 1010.4 hPa | 2.54 mm | - | - | - |
| 1777583100 | 8.33° C | 96% | 1010.2 hPa | 1.78 mm | - | - | - |
| 1777582200 | 8.33° C | 96% | 1010.4 hPa | 1.02 mm | - | - | - |
| 1777581299 | 7.78° C | 96% | 1010.1 hPa | 0.76 mm | - | - | - |
| 1777580400 | 7.78° C | 96% | 1010.3 hPa | 1.02 mm | - | - | - |
| 1777579500 | 7.78° C | 95% | 1010.4 hPa | 1.02 mm | - | - | - |
| 1777578599 | 7.78° C | 95% | 1010.9 hPa | 1.27 mm | - | - | - |
| 1777577701 | 7.78° C | 95% | 1011.3 hPa | 2.03 mm | - | - | - |
| 1777576800 | 7.78° C | 95% | 1011.9 hPa | 2.03 mm | - | - | - |
| 1777575899 | 7.78° C | 95% | 1012.1 hPa | 2.03 mm | - | - | - |
| 1777575001 | 7.78° C | 95% | 1012.5 hPa | 2.03 mm | - | - | - |
| 1777574100 | 7.78° C | 95% | 1013.5 hPa | 2.03 mm | - | - | - |
| 1777573199 | 7.78° C | 95% | 1013.5 hPa | 1.78 mm | - | - | - |
| 1777572301 | 7.78° C | 95% | 1013.8 hPa | 1.78 mm | - | - | - |
| 1777571400 | 7.78° C | 94% | 1014.3 hPa | 1.27 mm | - | - | - |
| 1777570500 | 7.78° C | 94% | 1014.4 hPa | 0.76 mm | - | - | - |
* Rain latest hour (hover to see other rain measurements)
** Current wind speed in m/s (hover to see current wind gust speed)